Temperature
8 8 8 7 7 7 7 7 6 6 6 6 6 6 6 6 6 6 6 6 6 6 6 6 6 6 5 5 5 5 5 4 4 5 5 5 5 5 5 5 5 5 5
7 7 7 7 7 7 6 6 6 6 6 6 6 6 6 6 6 6 6 6 5 5 5 5 5 5 5 5 5 5 4 4 4 4 4 4 4 4 4 4 4 4 4
7 7 7 7 7 6 6 6 6 6 5 6 5 5 5 5 5 5 5 5 5 5 5 5 5 4 4 4 4 4 4 4 4 3 3 3 4 4 3 3 3 3 3
7 7 7 7 6 6 6 6 5 5 5 5 5 5 5 5 5 5 5 5 5 4 4 4 4 4 4 4 4 3 3 3 3 3 3 3 3 3 3 3 3 3 3
7 7 7 6 6 6 5 5 5 5 5 5 5 5 5 5 4 4 4 4 4 4 4 3 3 3 3 3 3 3 3 3 2 2 2 2 2 2 2 2 2 2 2
6 6 6 6 6 6 5 5 5 5 5 4 4 4 4 4 4 4 4 4 3 3 3 3 3 3 3 3 2 2 2 2 2 2 2 2 2 1 1 1 1 1 1
6 6 6 5 5 5 5 5 5 4 4 4 4 4 4 4 4 4 3 3 3 3 3 2 2 2 2 2 2 2 2 2 2 1 1 1 1 1 1 0 0 0 0
6 6 5 5 5 5 5 4 4 4 4 4 4 4 4 4 3 3 3 3 3 2 2 2 2 2 2 2 2 2 2 2 1 1 1 1 0 0 -0 -0 -0 -0 -0
5 5 5 5 5 4 4 4 4 4 4 3 3 3 3 3 3 3 2 2 2 2 2 2 2 2 2 1 1 1 1 1 1 1 0 0 -0 -0 -1 -1 -1 -1 -1
5 5 5 4 4 4 4 4 3 3 3 3 3 3 3 3 2 2 2 2 2 2 2 2 1 1 1 1 1 1 1 1 0 0 -0 -0 -0 -1 -1 -1 -1 -2 -2
4 4 4 4 4 4 3 3 3 3 3 3 3 3 2 2 2 2 2 1 1 1 1 1 1 1 1 0 0 0 0 -0 -0 -0 -1 -1 -1 -1 -1 -2 -2 -2 -2
4 4 4 4 3 3 3 3 3 2 2 2 2 2 2 2 2 2 1 1 1 1 1 1 1 0 0 0 -0 -0 -0 -1 -1 -1 -1 -1 -1 -2 -2 -2 -2 -2 -3
3 3 3 3 3 3 3 2 2 2 2 2 2 2 2 2 1 1 1 1 0 0 0 0 0 -0 -0 -0 -0 -1 -1 -1 -1 -1 -1 -2 -2 -2 -2 -2 -3 -3 -3
3 3 3 3 3 2 2 2 2 2 2 1 1 1 1 1 1 1 1 0 0 -0 -0 -0 -0 -1 -1 -1 -1 -1 -1 -2 -2 -2 -2 -2 -2 -3 -3 -3 -3 -3 -3
3 3 3 2 2 2 2 2 1 1 1 1 1 1 1 1 1 0 -0 -0 -0 -0 -1 -1 -1 -1 -1 -1 -1 -2 -2 -2 -2 -2 -3 -3 -3 -3 -3 -3 -3 -4 -4
2 2 2 2 2 1 1 1 1 1 1 1 1 0 0 0 -0 -0 -0 -1 -1 -1 -1 -1 -1 -1 -1 -2 -2 -2 -2 -2 -3 -3 -3 -3 -3 -4 -4 -4 -4 -4 -4
2 2 2 2 2 1 1 1 1 1 1 1 0 0 0 -0 -0 -1 -1 -1 -1 -1 -1 -1 -1 -1 -2 -2 -2 -2 -3 -3 -3 -3 -3 -4 -4 -4 -4 -4 -4 -5 -5
2 2 2 1 1 1 1 0 0 0 0 0 0 0 -0 -0 -0 -1 -1 -2 -2 -2 -2 -1 -2 -2 -2 -2 -2 -3 -3 -3 -3 -4 -4 -4 -4 -5 -5 -5 -5 -5 -5
1 1 1 1 1 1 0 -0 -0 -0 -0 -0 -0 -0 -0 -1 -1 -1 -1 -2 -2 -2 -2 -2 -2 -2 -2 -3 -3 -3 -3 -3 -4 -4 -4 -4 -5 -5 -5 -5 -6 -6 -6
1 1 1 1 0 0 -0 -0 -1 -1 -1 -1 -1 -0 -1 -1 -1 -1 -2 -2 -2 -2 -2 -2 -2 -2 -3 -3 -3 -3 -4 -4 -4 -4 -5 -5 -5 -5 -6 -6 -6 -6 -6
1 1 0 0 -0 -0 -0 -1 -1 -1 -1 -1 -1 -1 -1 -2 -2 -2 -2 -2 -2 -2 -2 -3 -3 -3 -3 -3 -3 -4 -4 -4 -4 -5 -5 -5 -5 -6 -6 -6 -6 -7 -7
0 0 -0 -0 -0 -1 -1 -1 -1 -1 -1 -1 -1 -1 -2 -2 -2 -2 -2 -2 -2 -3 -3 -3 -3 -3 -3 -3 -4 -4 -4 -4 -5 -5 -5 -5 -6 -6 -6 -7 -7 -7 -7
-0 -0 -0 -1 -1 -1 -1 -1 -1 -2 -2 -2 -2 -2 -2 -2 -2 -2 -2 -2 -3 -3 -3 -3 -3 -3 -3 -4 -4 -4 -4 -5 -5 -5 -5 -6 -6 -6 -7 -7 -7 -7 -7
-1 -1 -1 -1 -1 -1 -1 -2 -2 -2 -2 -2 -2 -2 -2 -2 -2 -2 -3 -3 -3 -3 -3 -3 -3 -4 -4 -4 -4 -4 -4 -5 -5 -5 -6 -6 -6 -7 -7 -7 -7 -7 -8
-1 -1 -1 -1 -1 -2 -2 -2 -2 -2 -2 -2 -2 -2 -2 -2 -3 -3 -3 -3 -3 -3 -3 -4 -4 -4 -4 -4 -4 -4 -5 -5 -5 -5 -6 -6 -6 -7 -7 -7 -8 -8 -8
-2 -2 -2 -2 -2 -2 -2 -2 -2 -2 -2 -2 -2 -2 -2 -3 -3 -3 -3 -3 -3 -3 -4 -4 -4 -4 -4 -4 -4 -5 -5 -5 -6 -6 -6 -6 -7 -7 -7 -8 -8 -8 -8
Wind_Speed
5 5 4 4 4 4 4 5 4 4 3 4 4 4 4 4 3 2 3 3 2 3 2 2 3 2 2 2 2 2 2 3 5 4 2 3 3 4 5 6 6 6 8
5 5 5 5 4 5 5 6 5 5 4 4 4 4 4 4 3 3 3 3 3 3 3 3 3 2 2 2 2 2 2 3 4 5 3 3 3 3 4 4 5 6 7
5 5 5 5 5 6 6 6 5 5 5 4 4 4 5 4 4 4 4 4 3 4 4 3 3 3 3 3 2 2 2 2 2 3 4 2 2 3 3 4 4 4 6
5 5 6 6 6 7 6 6 6 5 5 5 5 5 5 5 4 4 4 4 4 4 4 4 4 4 4 3 3 3 2 2 2 3 3 3 2 3 2 3 4 4 5
5 6 7 7 6 6 6 6 6 6 6 6 5 5 5 4 4 4 4 4 4 4 4 4 4 4 5 4 3 3 3 2 2 3 3 3 3 3 3 3 4 5 4
6 8 7 6 6 6 6 6 6 6 6 5 6 6 6 5 7 8 5 4 4 5 5 4 4 4 5 5 5 4 4 4 4 3 3 4 4 3 3 3 4 4 4
7 7 6 6 7 7 6 6 6 7 6 6 6 6 7 8 10 9 8 5 5 5 5 5 4 4 4 3 3 4 4 4 4 4 4 4 4 4 3 4 4 4 5
7 7 7 6 7 7 6 7 7 6 6 6 6 6 6 8 10 10 8 5 4 5 5 5 5 5 4 3 3 2 2 2 3 2 3 3 3 3 3 3 4 4 5
8 8 8 7 7 7 7 8 6 5 6 6 5 6 7 8 9 10 8 4 4 5 5 5 5 5 6 5 3 3 3 3 2 2 2 2 3 3 3 1 2 3 4
9 9 8 7 7 8 8 7 5 5 6 6 6 6 7 7 9 10 9 4 5 5 4 4 6 6 6 6 4 4 4 3 1 1 1 2 2 3 3 1 1 2 3
8 7 7 7 8 8 7 6 5 5 5 5 6 6 6 8 9 10 10 5 5 5 4 4 4 7 7 7 5 4 5 3 1 1 1 1 1 1 2 2 1 2 3
6 6 7 7 6 6 6 6 5 5 5 6 5 6 5 6 8 9 11 10 8 6 6 4 5 7 7 7 5 5 5 3 1 1 1 1 2 2 2 2 3 4 4
6 7 7 6 6 5 6 6 4 5 5 5 5 6 6 5 6 10 11 11 11 7 5 7 7 7 6 5 5 5 3 2 2 2 2 2 2 2 2 2 3 4 4
7 7 6 6 6 5 5 5 5 6 6 6 6 7 6 5 5 5 5 6 7 7 5 6 7 7 4 4 4 3 2 2 2 2 2 2 1 1 1 2 2 3 3
7 7 6 6 6 6 6 6 7 7 8 8 7 7 6 7 8 9 6 5 5 5 4 2 2 2 3 3 2 2 2 2 2 2 2 1 1 2 2 2 2 2 2
7 7 6 5 5 5 5 5 8 9 11 13 12 10 8 10 10 10 11 11 11 9 5 4 5 5 5 5 4 3 3 3 3 2 2 2 2 2 2 2 2 2 3
8 7 6 5 5 5 5 5 6 6 8 11 12 12 12 11 11 11 11 11 11 10 6 5 6 6 5 5 4 4 4 3 3 3 3 3 2 2 2 2 2 3 3
8 8 7 6 6 6 6 6 6 6 5 5 7 11 12 11 11 10 10 8 7 7 6 6 6 6 5 5 5 4 4 3 3 3 3 3 3 2 2 3 3 3 4
7 6 6 6 6 6 6 5 5 6 6 6 5 5 8 9 9 10 9 6 6 6 6 6 6 5 5 5 5 5 5 4 4 4 4 4 3 3 3 3 3 5 4
7 10 8 6 5 5 5 5 6 6 6 6 6 5 4 4 4 5 6 5 6 6 6 6 6 6 6 6 5 5 5 5 5 4 4 4 3 3 4 4 4 4 4
6 7 9 6 6 6 6 6 6 6 7 7 7 7 8 6 6 6 6 6 6 7 6 6 6 6 6 5 5 6 6 5 5 5 4 4 4 3 4 4 4 4 4
6 6 5 6 6 6 6 6 6 7 7 7 6 6 11 7 6 6 6 6 6 6 6 5 5 6 6 6 6 6 6 6 5 5 5 4 4 4 4 4 4 4 4
6 6 6 5 5 7 7 6 6 7 7 7 6 6 6 6 6 6 6 6 5 5 5 5 5 5 5 6 6 6 6 6 6 6 6 5 4 4 4 4 4 4 4
6 6 6 6 5 6 6 6 6 7 7 6 6 6 6 6 6 7 6 5 5 5 5 5 6 7 7 6 6 7 7 7 7 7 7 6 5 4 4 4 4 4 4
6 6 6 6 6 6 6 7 7 7 6 6 6 6 6 6 6 6 5 5 5 5 6 5 5 6 8 8 8 7 9 10 9 7 7 6 5 5 5 4 4 4 4
6 6 6 6 6 6 7 7 7 7 6 6 6 6 6 6 6 5 5 5 5 4 4 4 6 7 7 8 9 9 10 11 10 10 7 5 5 5 5 4 4 4 3
Wind_Direction
238 239 242 245 246 243 240 244 244 251 255 261 266 273 277 279 279 280 281 289 289 296 298 285 278 271 266 267 260 250 245 235 257 278 277 290 293 308 323 328 328 328 323
233 236 243 247 249 249 247 249 246 247 249 252 261 267 270 272 268 264 271 277 270 275 283 284 282 285 275 267 256 255 256 249 247 270 283 285 278 293 305 312 327 328 319
231 233 243 248 249 251 249 249 246 247 252 255 256 259 261 263 262 260 258 264 262 260 260 262 268 270 272 270 260 257 261 270 256 260 279 288 295 306 312 313 311 312 318
233 233 241 245 244 247 247 245 244 243 246 250 251 251 254 256 255 256 257 263 264 263 261 258 260 258 261 266 264 254 252 261 266 267 275 284 294 306 314 312 314 320 314
235 238 242 245 243 245 248 249 247 244 244 245 247 251 253 253 251 249 251 257 259 264 265 263 259 259 262 259 260 252 242 250 257 264 272 282 290 307 303 300 303 312 303
238 244 247 247 244 244 247 248 249 248 246 242 242 243 248 255 257 252 247 249 254 256 262 266 263 260 266 269 270 263 246 241 242 248 258 265 275 276 282 293 303 315 306
244 248 248 244 246 247 247 246 248 248 243 243 242 239 246 252 254 254 249 244 245 248 249 255 265 262 262 259 269 278 280 271 253 240 247 254 259 263 272 285 286 285 279
250 250 246 242 246 249 247 247 247 246 242 242 244 241 246 254 254 253 250 243 246 251 248 244 248 256 252 241 238 256 273 282 274 261 237 248 254 257 250 267 275 282 279
252 251 247 239 242 245 247 249 249 245 246 243 243 238 243 255 253 249 245 233 241 250 248 244 243 248 250 243 222 231 261 280 285 267 257 271 296 310 310 302 305 303 296
255 251 246 237 236 241 244 247 247 242 246 247 247 241 240 248 251 248 242 227 239 251 252 249 245 247 249 241 221 215 240 261 274 308 335 336 343 336 336 317 260 271 286
259 255 247 240 236 238 241 243 243 239 244 245 251 251 244 245 251 249 244 229 232 242 248 251 248 247 244 242 234 224 237 230 198 211 266 311 333 335 334 328 297 252 257
259 256 251 245 241 239 236 243 238 230 239 247 252 261 253 247 248 247 246 240 234 231 241 244 243 241 238 238 238 233 231 215 175 188 249 278 285 290 298 307 302 286 265
259 257 256 251 244 236 231 236 239 229 234 243 243 253 260 250 246 248 249 247 242 236 236 236 239 239 236 237 230 227 221 196 183 213 241 259 269 276 289 303 304 301 293
258 259 256 249 249 242 235 230 231 231 235 239 241 246 253 253 246 242 243 247 242 240 237 234 235 236 232 228 225 224 206 198 202 222 244 259 271 285 286 295 305 321 323
259 257 253 245 244 244 239 233 233 232 228 233 238 237 240 250 247 239 236 235 229 227 215 209 212 220 222 222 219 212 201 203 228 230 233 250 260 271 282 295 292 309 303
262 259 252 248 244 240 245 260 248 243 246 244 243 243 245 246 252 246 244 243 240 227 216 216 220 222 221 220 218 218 212 213 218 222 230 240 250 259 274 286 290 291 297
252 257 253 244 240 238 236 242 264 267 250 248 247 247 249 250 249 246 244 242 238 226 224 221 222 221 220 216 215 214 218 215 204 209 224 231 237 251 266 279 289 292 296
256 255 249 241 236 234 234 236 239 250 266 267 254 251 253 251 247 244 242 238 237 228 225 222 222 219 216 215 213 211 210 203 202 210 215 218 219 233 255 267 273 278 288
257 255 247 241 235 234 234 235 239 243 250 262 271 262 251 249 245 242 234 232 231 231 227 224 220 215 213 210 209 207 206 205 204 204 211 212 212 221 242 252 261 274 283
258 256 251 241 236 235 233 235 240 243 247 250 252 252 241 235 237 233 227 229 232 233 227 223 218 212 209 206 203 202 203 204 202 205 209 209 209 216 233 244 255 265 272
260 258 251 245 235 232 233 236 239 241 244 248 250 245 237 237 236 234 232 230 231 231 228 222 216 209 206 203 201 202 202 205 203 203 205 206 207 219 230 239 251 261 271
253 250 243 242 240 235 238 237 237 240 243 248 255 251 244 242 239 238 235 233 231 229 222 217 216 211 203 200 199 200 203 204 202 199 200 202 207 216 224 234 247 259 266
251 248 249 246 241 247 251 241 238 242 246 246 245 245 242 238 238 238 237 232 228 226 220 212 213 212 203 201 198 195 199 202 200 192 191 197 205 212 219 231 241 255 263
249 247 248 250 246 241 242 245 243 243 245 246 245 243 241 239 239 238 236 231 225 223 216 210 209 207 198 196 198 201 203 202 196 194 189 194 202 209 217 227 238 250 258
250 247 248 248 246 245 246 248 248 246 245 246 246 246 243 240 239 237 231 225 220 218 213 208 208 204 198 195 195 200 202 198 195 195 193 193 199 205 213 222 233 248 258
254 250 250 248 245 243 244 248 250 248 248 248 247 245 240 238 237 233 225 219 216 213 210 208 202 197 195 198 199 198 200 201 200 197 195 191 196 205 208 218 227 238 249
Height
1499 1498 1497 1496 1495 1494 1493 1492 1491 1490 1489 1487 1486 1485 1483 1482 1480 1479 1477 1476 1475 1474 1473 1472 1470 1470 1469 1468 1467 1466 1465 1464 1461 1459 1459 1458 1456 1455 1453 1452 1450 1449 1447
1495 1494 1493 1492 1491 1490 1489 1488 1487 1486 1485 1484 1482 1481 1479 1478 1477 1475 1474 1473 1471 1470 1469 1468 1466 1466 1465 1464 1463 1462 1461 1460 1458 1455 1454 1453 1452 1451 1449 1447 1445 1444 1442
1492 1490 1489 1488 1487 1486 1485 1484 1483 1482 1481 1480 1478 1477 1476 1474 1473 1472 1470 1469 1467 1466 1465 1463 1462 1461 1460 1460 1458 1457 1456 1455 1454 1452 1450 1449 1448 1447 1445 1443 1441 1439 1438
1488 1486 1485 1484 1483 1482 1481 1480 1479 1478 1477 1475 1474 1473 1471 1470 1469 1468 1466 1465 1463 1462 1461 1460 1459 1457 1456 1455 1454 1453 1452 1451 1449 1448 1446 1445 1444 1442 1441 1439 1437 1435 1433
1483 1482 1481 1480 1478 1477 1476 1475 1474 1473 1472 1471 1470 1468 1467 1466 1465 1463 1462 1460 1459 1457 1456 1455 1454 1453 1452 1451 1450 1449 1448 1446 1445 1443 1442 1440 1439 1438 1436 1434 1432 1430 1428
1478 1477 1476 1475 1473 1472 1471 1470 1469 1468 1467 1466 1465 1463 1462 1461 1460 1459 1458 1456 1454 1453 1452 1451 1450 1449 1448 1447 1445 1444 1444 1442 1441 1439 1438 1436 1435 1434 1432 1430 1428 1426 1424
1473 1472 1471 1469 1468 1467 1466 1464 1463 1462 1461 1460 1459 1458 1457 1456 1455 1454 1453 1451 1450 1449 1448 1446 1445 1444 1443 1442 1441 1440 1439 1438 1437 1436 1434 1432 1431 1429 1428 1426 1424 1422 1420
1468 1466 1465 1464 1463 1461 1460 1459 1457 1456 1455 1454 1453 1453 1451 1451 1450 1449 1448 1446 1445 1444 1443 1442 1441 1440 1439 1438 1437 1435 1434 1433 1432 1431 1430 1428 1427 1425 1424 1422 1420 1418 1416
1462 1460 1459 1458 1457 1456 1454 1453 1452 1451 1450 1449 1448 1447 1446 1445 1444 1443 1442 1441 1440 1439 1438 1437 1436 1435 1435 1434 1432 1431 1430 1429 1428 1427 1425 1424 1422 1421 1420 1418 1416 1414 1411
1456 1455 1453 1452 1451 1450 1449 1448 1447 1445 1444 1443 1442 1441 1440 1439 1439 1438 1437 1435 1434 1434 1433 1432 1432 1431 1430 1429 1428 1427 1426 1425 1424 1422 1421 1420 1419 1417 1416 1414 1412 1410 1408
1450 1449 1447 1446 1445 1444 1443 1442 1441 1440 1438 1437 1436 1435 1434 1433 1433 1432 1431 1430 1429 1429 1428 1428 1427 1427 1426 1425 1424 1423 1422 1421 1420 1419 1417 1416 1415 1414 1412 1411 1409 1407 1405
1444 1443 1441 1440 1439 1438 1437 1436 1435 1434 1432 1431 1430 1429 1428 1427 1427 1426 1426 1425 1424 1424 1423 1423 1422 1422 1421 1421 1420 1419 1419 1418 1416 1415 1414 1412 1411 1410 1409 1407 1406 1404 1402
1438 1437 1435 1434 1433 1432 1431 1430 1429 1428 1427 1425 1424 1423 1422 1422 1421 1421 1420 1420 1419 1419 1418 1418 1418 1417 1416 1416 1416 1415 1415 1414 1412 1411 1410 1409 1408 1407 1406 1404 1402 1401 1399
1432 1431 1429 1428 1427 1426 1425 1424 1423 1422 1421 1420 1418 1417 1416 1416 1415 1415 1414 1414 1414 1413 1413 1413 1413 1412 1412 1411 1411 1411 1410 1410 1409 1408 1407 1406 1405 1404 1403 1401 1399 1398 1396
1426 1425 1423 1422 1421 1419 1418 1418 1417 1416 1416 1414 1413 1412 1411 1410 1410 1410 1409 1408 1408 1408 1408 1407 1407 1407 1406 1406 1406 1406 1406 1406 1405 1404 1403 1403 1402 1401 1399 1398 1396 1395 1393
1420 1419 1417 1416 1414 1413 1412 1411 1410 1410 1409 1409 1408 1407 1405 1405 1404 1404 1404 1403 1403 1403 1402 1401 1401 1401 1401 1401 1401 1401 1401 1401 1401 1401 1400 1399 1398 1397 1396 1395 1393 1392 1390
1414 1413 1411 1409 1408 1407 1406 1405 1404 1403 1403 1402 1401 1401 1400 1399 1399 1398 1398 1398 1398 1397 1397 1396 1396 1396 1396 1396 1396 1397 1397 1397 1397 1397 1396 1395 1395 1394 1392 1391 1390 1388 1387
1408 1406 1405 1403 1402 1401 1400 1399 1398 1397 1396 1395 1395 1395 1394 1393 1393 1393 1393 1392 1391 1391 1391 1390 1391 1391 1391 1392 1392 1392 1393 1393 1393 1392 1392 1392 1391 1390 1389 1388 1387 1385 1384
1402 1400 1398 1397 1396 1395 1394 1393 1392 1391 1390 1389 1389 1388 1388 1387 1387 1387 1387 1386 1385 1385 1385 1385 1386 1386 1386 1387 1387 1388 1388 1388 1388 1388 1388 1388 1387 1386 1386 1385 1384 1382 1381
1395 1394 1392 1391 1389 1388 1388 1387 1386 1385 1384 1383 1383 1382 1382 1381 1380 1380 1380 1380 1380 1380 1380 1380 1380 1381 1381 1382 1382 1383 1383 1383 1383 1384 1383 1383 1383 1383 1382 1381 1380 1379 1378
1389 1387 1386 1384 1383 1382 1381 1381 1380 1379 1378 1377 1377 1377 1377 1376 1375 1374 1374 1374 1374 1374 1374 1375 1375 1375 1376 1377 1377 1378 1378 1378 1379 1379 1379 1379 1379 1379 1378 1378 1377 1376 1375
1382 1381 1379 1378 1377 1376 1375 1375 1374 1373 1372 1372 1371 1371 1371 1370 1369 1369 1368 1368 1368 1369 1369 1369 1370 1370 1371 1371 1372 1373 1373 1373 1374 1374 1375 1375 1375 1375 1375 1374 1374 1373 1372
1376 1374 1373 1372 1371 1370 1369 1368 1368 1367 1366 1366 1365 1365 1364 1364 1363 1363 1363 1362 1363 1363 1363 1364 1364 1365 1366 1366 1367 1368 1368 1369 1370 1370 1370 1371 1371 1371 1371 1371 1371 1370 1369
1370 1368 1367 1366 1365 1364 1363 1362 1362 1361 1360 1360 1359 1359 1358 1358 1358 1357 1357 1357 1357 1357 1358 1358 1359 1360 1360 1361 1362 1363 1364 1365 1365 1366 1366 1367 1367 1368 1368 1368 1367 1367 1366
1364 1362 1361 1359 1358 1357 1357 1356 1355 1355 1354 1354 1353 1353 1352 1352 1352 1352 1352 1351 1352 1352 1352 1353 1354 1355 1355 1356 1357 1358 1359 1360 1361 1362 1363 1363 1364 1364 1365 1365 1364 1364 1364
1357 1356 1355 1353 1352 1351 1351 1350 1349 1349 1348 1348 1347 1347 1346 1346 1346 1346 1346 1346 1346 1347 1347 1348 1349 1350 1351 1352 1353 1354 1355 1356 1357 1358 1359 1360 1360 1361 1361 1362 1362 1361 1361